[[{"header":{"parameterUnit":"m.s-1","parameterCategory":1,"la1":30.2991,"la2":30.254,"lo1":-89.0895,"lo2":-89.0444,"dy":0.0017,"dx":0.0017,"nx":28,"ny":28,"refTime":"2024-04-25T21:00:00:Z","depth":0,"parameterNumber":2,"parameterNumberName":"U-component_of_WINDS"},"data":[0,0,0,0,0,0,0,0,0,0,0,0,0,0,0,0,0,0,0,0,0,0,0,0,0,0,0,0,0,0,0,0,0,0,0,0,0,0,0,0,0,0,0,0,0,0,0,0,0,0,0,0,0,0,0,0,0,0,-1.4005,-1.4004,0,-1.3954,-1.3954,-1.3953,-1.3923,-1.3923,-1.3923,-1.3923,-1.387,-1.3869,-1.3868,0,0,0,0,0,0,0,0,0,0,0,0,0,-1.4076,-1.4075,-1.4005,-1.4004,-1.4004,-1.3954,-1.3954,-1.3953,-1.3923,-1.3923,-1.3923,-1.3923,-1.3871,-1.3869,-1.3868,0,0,0,0,0,0,0,0,0,0,0,0,0,-1.4037,-1.4075,-1.4005,-1.3983,-1.398,-1.3955,-1.3954,-1.3953,-1.3923,-1.3923,-1.3923,-1.3923,-1.3871,-1.3869,-1.3867,-1.3859,0,0,-1.3862,-1.3861,0,0,0,0,0,0,0,0,-1.404,-1.4035,-1.3987,-1.3984,-1.3982,-1.3945,-1.396,-1.3921,-1.3924,-1.3945,-1.3923,-1.3923,-1.3895,-1.3891,-1.3882,-1.3857,-1.3854,-1.3861,-1.386,-1.3859,-1.3859,0,0,0,0,0,0,0,-1.4042,-1.4037,-1.3985,-1.3986,-1.3983,-1.3976,-1.397,-1.3952,-1.3922,-1.3943,-1.3941,-1.3935,-1.3894,-1.3884,-1.3881,-1.3854,-1.3861,-1.386,-1.3859,-1.3858,-1.3821,-1.3821,0,0,0,0,0,0,-1.4049,-1.4039,-1.3986,-1.3983,-1.4011,-1.3975,-1.3968,-1.3957,-1.3922,-1.3916,-1.3936,-1.3934,-1.3888,-1.3883,-1.3879,-1.3868,-1.3859,-1.3858,-1.3856,-1.3821,-1.3821,-1.3821,0,0,0,0,0,0,-1.405,-1.4044,-1.3988,-1.4011,-1.4003,-1.3974,-1.3961,-1.3956,-1.3946,-1.3916,-1.3911,-1.3931,-1.3887,-1.3882,-1.3865,-1.3866,-1.3857,-1.3855,-1.3821,-1.3821,-1.3821,-1.3845,0,0,0,0,0,0,-1.4052,-1.4045,-1.4041,-1.4011,-1.4002,-1.3975,-1.3961,-1.3955,-1.3943,-1.3941,-1.3911,-1.3905,-1.3887,-1.3868,-1.3863,-1.3863,-1.3853,-1.382,-1.3821,-1.3821,-1.3844,-1.3846,-1.3848,0,0,0,0,0,-1.4055,-1.4049,-1.4041,-1.4035,-1.3997,-1.3975,-1.397,-1.3949,-1.3943,-1.394,-1.3921,-1.3906,-1.3867,-1.3866,-1.3861,-1.386,-1.382,-1.3821,-1.3821,-1.3843,-1.3846,-1.3848,0,0,0,0,0,0,-1.4079,-1.4045,-1.4035,-1.4019,-1.4001,-1.397,-1.3964,-1.3952,-1.3934,-1.3932,-1.3907,-1.39,-1.3886,-1.3871,-1.3872,-1.3851,-1.3842,-1.3841,-1.3861,-1.3863,-1.3865,-1.3868,-1.3852,0,0,0,0,0,-1.4083,-1.4069,-1.4039,-1.4028,-1.4019,-1.3994,-1.3983,-1.3969,-1.3948,-1.394,-1.392,-1.39,-1.3883,-1.3872,-1.3855,-1.3843,-1.3836,-1.3839,-1.3841,-1.3843,-1.3842,-1.3836,-1.3838,-1.3823,-1.3823,-1.3823,0,0,-1.409,-1.407,-1.4062,-1.4033,-1.4016,-1.4002,-1.3987,-1.3972,-1.3962,-1.3937,-1.3921,-1.3906,-1.3882,-1.3868,-1.386,-1.3855,-1.3845,-1.3844,-1.3845,-1.3843,-1.3837,-1.3838,-1.3839,-1.3823,-1.3823,-1.3823,0,0,-1.4096,-1.4079,-1.4068,-1.4053,-1.4029,-1.4012,-1.401,-1.3982,-1.3971,-1.3954,-1.3936,-1.3924,-1.3895,-1.3879,-1.3867,-1.387,-1.3857,-1.3866,-1.3875,-1.3869,-1.3871,-1.3872,-1.3873,-1.3874,-1.3865,-1.3865,-1.3865,0,-1.4107,-1.4085,-1.4064,-1.4051,-1.4039,-1.4018,-1.4008,-1.3994,-1.3965,-1.3958,-1.3952,-1.3917,-1.39,-1.3882,-1.3883,-1.3874,-1.3872,-1.3868,-1.3872,-1.3873,-1.3873,-1.3875,-1.3875,-1.3867,-1.3866,-1.3866,-1.3866,0,-1.4101,-1.4086,-1.4081,-1.4055,-1.4043,-1.4031,-1.4009,-1.3999,-1.3986,-1.3971,-1.3955,-1.3934,-1.3912,-1.3907,-1.3894,-1.3889,-1.3886,-1.3877,-1.3867,-1.3876,-1.3877,-1.3877,-1.3868,-1.3868,-1.3868,-1.3867,0,0,-1.4118,-1.4083,-1.4081,-1.407,-1.4043,-1.4031,-1.402,-1.4,-1.3992,-1.3974,-1.3964,-1.3941,-1.3933,-1.392,-1.3906,-1.3901,-1.3906,-1.3892,-1.3891,-1.3896,-1.3899,-1.3906,-1.3907,-1.3897,-1.3897,-1.3897,-1.3901,0,-1.412,-1.4098,-1.408,-1.4064,-1.4051,-1.4032,-1.4022,-1.4005,-1.3991,-1.3978,-1.3962,-1.3947,-1.3937,-1.3929,-1.3923,-1.3906,-1.3906,-1.3906,-1.3888,-1.3887,-1.3894,-1.3907,-1.3914,-1.3919,-1.3901,-1.3901,-1.3901,0,-1.4118,-1.4102,-1.4086,-1.4062,-1.4056,-1.4047,-1.4028,-1.4016,-1.3997,-1.3987,-1.3974,-1.3959,-1.3947,-1.394,-1.3923,-1.3923,-1.3915,-1.3906,-1.3906,-1.3902,-1.3894,-1.3904,-1.3919,-1.392,-1.3902,-1.3902,-1.3902,0,-1.4133,-1.4107,-1.4094,-1.4085,-1.4057,-1.4052,-1.404,-1.4021,-1.401,-1.3994,-1.3988,-1.3971,-1.3961,-1.3948,-1.393,-1.3926,-1.3915,-1.3906,-1.3907,-1.3908,-1.3905,-1.3905,-1.3918,-1.39,-1.39,-1.39,-1.39,0,-1.4137,-1.4127,-1.4101,-1.4093,-1.4082,-1.4062,-1.4053,-1.4039,-1.4023,-1.4012,-1.3995,-1.3986,-1.3963,-1.3951,-1.3936,-1.3925,-1.3921,-1.3913,-1.3909,-1.3914,-1.3915,-1.3908,-1.3907,-1.39,-1.39,-1.39,-1.39,0,-1.4151,-1.4133,-1.4117,-1.4093,-1.4087,-1.408,-1.4059,-1.4051,-1.4037,-1.4025,-1.402,-1.3998,-1.3984,-1.3965,-1.3944,-1.3934,-1.3925,-1.3919,-1.3931,-1.3929,-1.3931,-1.3931,-1.394,-1.394,-1.3922,-1.3923,-1.3923,0,-1.4154,-1.4146,-1.4122,-1.4114,-1.4103,-1.409,-1.408,-1.4061,-1.4052,-1.4031,-1.4026,-1.401,-1.3996,-1.3974,-1.3956,-1.3941,-1.3935,-1.3939,-1.3932,-1.3938,-1.3935,-1.3935,-1.3935,-1.394,-1.394,-1.3941,-1.3941,0,-1.4161,-1.4153,-1.414,-1.4124,-1.4113,-1.4099,-1.4085,-1.4079,-1.4057,-1.4048,-1.4033,-1.4023,-1.4003,-1.3987,-1.397,-1.3958,-1.3946,-1.3944,-1.3943,-1.3948,-1.3955,-1.3952,-1.3936,-1.3943,-1.3943,-1.3943,-1.3942,-1.3942,-1.417,-1.4163,-1.4145,-1.4131,-1.4119,-1.4106,-1.4098,-1.4084,-1.4071,-1.4054,-1.4044,-1.403,-1.4013,-1.3988,-1.3978,-1.3967,-1.3962,-1.3961,-1.3961,-1.3961,-1.3963,-1.3958,-1.3964,-1.3963,-1.3963,-1.3963,-1.3963,0,-1.4177,-1.4165,-1.4153,-1.4134,-1.4123,-1.4114,-1.4098,-1.409,-1.4078,-1.4063,-1.4051,-1.4035,-1.4021,-1.4003,-1.3988,-1.3983,-1.3978,-1.398,-1.398,-1.3978,-1.3967,-1.397,-1.3985,-1.3985,-1.3985,-1.3985,-1.3985,-1.3985,-1.4179,-1.4168,-1.4158,-1.4141,-1.4129,-1.4115,-1.4107,-1.4096,-1.4085,-1.4068,-1.4056,-1.4045,-1.403,-1.4014,-1.4001,-1.3996,-1.3992,-1.3996,-1.399,-1.398,-1.3978,-1.3976,-1.3978,-1.3995,-1.3995,-1.4001,-1.4001,-1.4001]},{"header":{"parameterUnit":"m.s-1","parameterCategory":1,"la1":30.2991,"la2":30.254,"lo1":-89.0895,"lo2":-89.0444,"dy":0.0017,"dx":0.0017,"nx":28,"ny":28,"refTime":"2024-04-25T21:00:00:Z","depth":0,"parameterNumber":3,"parameterNumberName":"V-component_of_WINDS"},"data":[0,0,0,0,0,0,0,0,0,0,0,0,0,0,0,0,0,0,0,0,0,0,0,0,0,0,0,0,0,0,0,0,0,0,0,0,0,0,0,0,0,0,0,0,0,0,0,0,0,0,0,0,0,0,0,0,0,0,3.2139,3.2139,0,3.2086,3.2085,3.2084,3.2104,3.2105,3.2106,3.2108,3.2047,3.2045,3.2042,0,0,0,0,0,0,0,0,0,0,0,0,0,3.2254,3.2252,3.2139,3.2139,3.2138,3.2086,3.2085,3.2084,3.2104,3.2105,3.2107,3.2108,3.2048,3.2045,3.2042,0,0,0,0,0,0,0,0,0,0,0,0,0,3.2203,3.2251,3.2139,3.2141,3.2141,3.2086,3.2085,3.2084,3.2103,3.2105,3.2107,3.2109,3.2049,3.2045,3.2041,3.1979,0,0,3.2029,3.2027,0,0,0,0,0,0,0,0,3.2206,3.2198,3.2142,3.2141,3.2141,3.2104,3.2104,3.2049,3.2103,3.2117,3.2108,3.211,3.2064,3.2059,3.2045,3.1977,3.1974,3.2029,3.2026,3.2024,3.2023,0,0,0,0,0,0,0,3.2209,3.2201,3.2118,3.2141,3.214,3.2144,3.2138,3.2093,3.2081,3.2116,3.2118,3.2111,3.2064,3.2049,3.2044,3.1973,3.2029,3.2025,3.2022,3.2021,3.1852,3.185,0,0,0,0,0,0,3.2214,3.2204,3.212,3.2116,3.2178,3.214,3.2134,3.2113,3.2082,3.2079,3.211,3.2112,3.2055,3.2048,3.2042,3.1967,3.2024,3.202,3.2018,3.1854,3.1852,3.185,0,0,0,0,0,0,3.2216,3.2206,3.2122,3.216,3.215,3.2136,3.2113,3.2111,3.2096,3.2077,3.2074,3.2096,3.2056,3.2047,3.1995,3.1966,3.2019,3.2015,3.1857,3.1854,3.1851,3.1818,0,0,0,0,0,0,3.2219,3.2207,3.2184,3.216,3.2148,3.2077,3.2111,3.2109,3.2089,3.2092,3.2064,3.2061,3.2057,3.2001,3.1991,3.1961,3.2012,3.1859,3.1855,3.1852,3.1822,3.1815,3.1808,0,0,0,0,0,3.2223,3.2175,3.2182,3.2172,3.2119,3.2076,3.2069,3.2067,3.2087,3.2063,3.2051,3.2061,3.1971,3.1996,3.1985,3.1953,3.1861,3.1856,3.1852,3.1825,3.1816,3.1808,0,0,0,0,0,0,3.2194,3.2172,3.218,3.2123,3.2101,3.2079,3.2049,3.2057,3.2028,3.2032,3.2029,3.2022,3.1969,3.1956,3.1984,3.1891,3.1919,3.1912,3.1902,3.1893,3.1887,3.189,3.2008,0,0,0,0,0,3.2181,3.2149,3.2131,3.2083,3.2072,3.2062,3.2043,3.2044,3.2021,3.2011,3.1995,3.1971,3.1937,3.1914,3.1882,3.1821,3.1814,3.1793,3.1786,3.1781,3.1774,3.1741,3.1732,3.1835,3.1835,3.1835,0,0,3.2153,3.2138,3.2117,3.2076,3.206,3.2026,3.2054,3.2016,3.1991,3.2005,3.1955,3.1943,3.1916,3.1859,3.1833,3.1846,3.1745,3.1775,3.1771,3.1767,3.1736,3.1726,3.1717,3.1832,3.1832,3.1833,0,0,3.2086,3.2071,3.203,3.2013,3.1988,3.1983,3.1973,3.195,3.1943,3.1894,3.1904,3.1873,3.1814,3.1795,3.1777,3.1704,3.1713,3.1694,3.1657,3.1625,3.1617,3.161,3.1584,3.1575,3.1688,3.1688,3.1688,0,3.2054,3.2005,3.2007,3.1969,3.195,3.1964,3.1922,3.1905,3.187,3.1856,3.1872,3.18,3.1783,3.1722,3.1705,3.169,3.1678,3.1696,3.1619,3.1611,3.1604,3.158,3.157,3.1686,3.1686,3.1686,3.1686,0,3.1967,3.1933,3.1902,3.1871,3.1849,3.1809,3.1803,3.1781,3.1784,3.1777,3.1727,3.1707,3.1671,3.1657,3.1658,3.1596,3.1605,3.162,3.1647,3.1592,3.1569,3.156,3.1682,3.1683,3.1684,3.1684,0,0,3.1878,3.185,3.1838,3.1825,3.18,3.1772,3.1733,3.17,3.1681,3.1657,3.1623,3.1574,3.1588,3.1568,3.1568,3.154,3.1484,3.1558,3.1557,3.1545,3.1415,3.1404,3.1393,3.149,3.1488,3.1487,3.1417,0,3.1808,3.1741,3.1742,3.1679,3.1647,3.1661,3.1626,3.1606,3.1599,3.157,3.1561,3.1526,3.1547,3.1535,3.1508,3.1497,3.1458,3.1502,3.1458,3.1456,3.1464,3.138,3.1368,3.1303,3.1408,3.1406,3.1405,0,3.1718,3.1694,3.1628,3.1609,3.1595,3.1564,3.1535,3.1508,3.1485,3.1482,3.1461,3.1465,3.1424,3.1454,3.1397,3.1427,3.1409,3.1401,3.1399,3.1394,3.1427,3.1373,3.1282,3.1273,3.1391,3.1392,3.1393,0,3.1659,3.161,3.1565,3.1552,3.1529,3.1507,3.1496,3.1476,3.1456,3.143,3.1418,3.1386,3.1369,3.1344,3.134,3.1362,3.1283,3.1313,3.1279,3.1279,3.126,3.1261,3.1165,3.125,3.125,3.125,3.125,0,3.1581,3.1541,3.1538,3.151,3.1465,3.1467,3.1421,3.1412,3.1394,3.1364,3.1373,3.1344,3.1341,3.1311,3.1307,3.1261,3.1253,3.1248,3.1248,3.1247,3.1248,3.1235,3.1239,3.1247,3.1248,3.1248,3.1249,0,3.1508,3.1505,3.1456,3.1439,3.1434,3.1401,3.1385,3.1358,3.1352,3.1314,3.1305,3.1295,3.126,3.1254,3.1212,3.121,3.1155,3.1159,3.1163,3.1163,3.113,3.1133,3.1021,3.1007,3.1101,3.11,3.1099,0,3.1458,3.1427,3.1408,3.1389,3.1377,3.1347,3.1328,3.1329,3.1308,3.1282,3.1258,3.1224,3.1198,3.1141,3.113,3.1098,3.1101,3.1064,3.1096,3.1097,3.1101,3.1102,3.1099,3.1058,3.1057,3.1056,3.1055,0,3.137,3.1371,3.1344,3.1317,3.1295,3.1273,3.1252,3.1236,3.1234,3.1211,3.1176,3.1156,3.1115,3.1081,3.1051,3.1038,3.1046,3.1046,3.1036,3.1035,3.1039,3.1036,3.1146,3.1048,3.1049,3.1049,3.105,3.105,3.1307,3.1281,3.1263,3.1233,3.1219,3.12,3.1174,3.1166,3.1138,3.1106,3.1108,3.107,3.1049,3.1009,3.0994,3.0964,3.0976,3.0962,3.0958,3.0954,3.0951,3.1044,3.0958,3.0958,3.0959,3.0959,3.0959,0,3.1219,3.1209,3.1182,3.1154,3.1131,3.1143,3.1121,3.11,3.1068,3.1049,3.1023,3.0984,3.0952,3.0939,3.0907,3.0886,3.0889,3.0877,3.0879,3.0876,3.0943,3.0954,3.0876,3.0876,3.0876,3.0876,3.0876,3.0876,3.1171,3.1128,3.1127,3.1076,3.1066,3.1031,3.1017,3.1,3.0985,3.0941,3.0916,3.0908,3.0891,3.0859,3.083,3.0827,3.0815,3.0802,3.08,3.0862,3.0871,3.0879,3.089,3.0799,3.0799,3.0736,3.0735,3.0735]}]]